Regional Weather Roundup
Issued by NWS

Home | Current Version | Previous Version | Text Only | Print | Product List | Glossary Off
Versions: 1 2 3 4 5 6 7 8 9 10 11 12 13 14 15 16 17 18 19 20 21 22 23 24 25 26 27 28 29 30 31 32 33 34 35 36 37 38 39 40 41 42 43 44 45 46 47 48 49 50

188
ASUS43 KLMK 120502
RWRKY
KENTUCKY REGIONAL WEATHER ROUNDUP
NATIONAL WEATHER SERVICE LOUISVILLE KY
1200 AM EST TUE DEC 12 2017

NOTE "FAIR" INDICATES FEW OR NO CLOUDS BELOW 12,000 FEET
WITH NO SIGNIFICANT WEATHER AND/OR OBSTRUCTIONS TO VISIBILITY.

KYZ001>023-026-027-061>063-070>075-120600-
WESTERN AND SOUTH CENTRAL KENTUCKY

CITY           SKY/WX    TMP DP  RH WIND       PRES   REMARKS
PADUCAH        CLOUDY    49  28  44 W12       29.96R
HENDERSON      PTCLDY    45  32  60 NW22      29.92R
OWENSBORO      CLOUDY    46  32  58 NW14      29.89R
HOPKINSVILLE   CLOUDY    47  26  44 W8        29.91R
BOWLING GREEN  PTCLDY    47  28  47 W8        29.89R
GLASGOW        NOT AVBL
$$

KYZ024-025-028>034-038-045-046-053-120600-
NORTH CENTRAL KENTUCKY

CITY           SKY/WX    TMP DP  RH WIND       PRES   REMARKS
LOUISVILLE/SDF PTCLDY    45  30  55 W15       29.81R
LOUISVILLE/LOU PTCLDY    45  31  58 W10G23    29.81R
FORT KNOX      MOCLDY    44  29  56 W13       29.81R
$$

KYZ035>037-039>044-047>052-055>060-089>105-120600-
NORTHEAST KENTUCKY

CITY           SKY/WX    TMP DP  RH WIND       PRES   REMARKS
LEXINGTON      CLEAR     46  27  47 W15       29.78R
COVINGTON      CLOUDY    43  29  57 W18G37    29.72R
FRANKFORT      CLEAR     45  25  45 W9        29.77R
$$

KYZ054-064>069-076>088-106>120-120600-
SOUTHEAST KENTUCKY

CITY           SKY/WX    TMP DP  RH WIND       PRES   REMARKS
JACKSON        PTCLDY    49  29  46 SW9G25    29.75S
LONDON         MOCLDY    47  29  49 SW10      29.80R
SOMERSET       NOT AVBL
MIDDLESBORO    CLOUDY    48  32  53 S3        29.82F
MONTICELLO     CLOUDY    48  29  47 W13G22    29.87R
$$





USA.gov is the U.S. government's official web portal to all federal, state and local government web resources and services.